Vorticity
4 4 5 4 1 4 7 7 7 6 7 8 7 5 3 0 0 -1 3 5 6 7 2 4 10 5 5 6 5 7 4 5 8 12 5 15 6 2 4 9 4 1 6 7 8
4 5 2 1 3 4 5 6 6 6 8 6 4 2 2 1 3 1 1 0 4 7 14 11 7 9 6 4 5 6 5 5 7 10 10 6 8 1 4 7 5 1 -1 8 6
4 2 1 3 6 8 6 6 6 7 5 4 5 5 5 7 10 8 14 18 21 24 15 13 9 5 5 5 5 4 7 5 5 8 10 6 8 4 6 4 6 2 2 6 7
4 3 2 5 6 6 9 5 6 5 3 4 7 6 7 10 22 31 40 41 40 37 20 14 8 5 5 6 4 6 2 5 6 6 9 8 11 6 6 7 7 2 -0 1 5
2 2 5 4 6 8 6 6 11 8 6 10 6 10 14 18 42 39 29 27 29 33 38 29 24 16 8 3 4 6 2 3 5 7 7 13 7 2 5 6 8 3 -0 1 4
2 4 3 5 7 6 8 10 11 9 9 6 7 9 22 50 35 17 15 15 20 23 20 28 32 24 19 12 6 4 3 3 4 6 7 9 11 8 2 5 7 5 2 2 3
4 3 4 8 6 7 10 11 10 9 9 6 9 24 35 26 12 12 10 16 16 20 21 23 20 26 33 19 13 7 7 3 4 1 8 10 13 13 0 4 5 5 3 1 2
5 6 7 3 6 13 13 11 8 8 5 7 17 28 32 20 11 9 8 16 19 18 22 22 24 21 27 26 24 11 7 8 2 2 4 10 10 13 4 7 10 5 4 2 2
7 7 5 7 9 11 12 10 7 8 8 11 23 32 23 15 9 7 9 14 26 19 19 19 22 24 22 23 24 19 19 10 3 1 4 10 6 7 9 4 8 10 5 3 3
6 4 6 5 8 6 11 10 8 6 9 18 25 28 23 12 9 4 10 10 21 21 19 24 14 18 25 23 21 27 41 12 9 11 6 9 5 9 8 7 8 10 9 5 4
3 4 8 5 7 5 11 8 9 7 13 26 20 25 11 8 8 6 8 11 21 19 20 17 19 14 18 22 16 -2 20 29 8 9 8 8 3 7 8 8 8 9 9 9 5
4 7 7 6 8 8 11 8 8 4 13 23 25 21 10 10 7 6 6 15 21 25 18 18 16 17 16 25 22 20 -13 38 25 11 9 4 4 8 9 3 10 6 10 9 8
9 8 7 8 9 9 11 6 7 6 19 8 21 21 18 7 7 4 11 17 21 25 22 17 16 17 13 22 27 20 5 5 19 32 25 0 3 9 15 7 6 10 12 9 6
6 6 7 7 11 8 12 8 6 6 18 8 24 11 8 7 4 10 19 24 26 24 26 19 23 19 14 10 25 30 22 -2 22 38 26 5 11 5 9 6 6 10 9 7 10
6 6 7 9 10 9 11 9 6 8 25 15 17 13 9 6 6 15 25 28 24 22 22 21 19 21 18 15 27 27 26 -22 -6 12 29 24 22 13 10 9 5 10 10 9 7
4 5 7 8 10 9 10 8 10 8 10 13 16 10 9 6 13 24 31 30 23 16 15 18 17 18 19 19 20 30 30 21 15 7 8 18 26 -2 34 7 7 8 10 9 11
3 6 10 8 8 11 9 8 8 16 11 8 13 14 8 6 18 26 30 27 24 18 9 18 16 18 18 22 23 28 27 31 -50 -2 -4 9 33 35 -17 11 4 7 9 9 9
4 5 7 8 9 10 10 6 8 8 16 16 14 16 7 7 19 26 26 21 18 14 13 16 11 15 22 25 30 28 25 14 31 7 8 31 23 8 25 29 -5 6 7 9 11
2 6 9 7 8 10 9 9 9 11 14 14 17 15 7 9 21 30 26 17 17 15 12 12 13 17 21 24 31 40 21 30 14 -0 50 -2 18 13 21 19 10 7 7 7 8
1 8 8 8 7 9 13 7 10 9 15 14 15 17 7 6 21 30 27 16 13 13 11 11 14 19 21 15 25 34 13 33 22 -3 8 22 13 12 17 31 11 6 8 12 0
5 7 5 8 8 11 6 10 10 10 15 18 13 12 8 4 14 23 23 18 17 10 10 9 11 14 26 11 16 32 30 18 38 -27 -0 3 23 1 0 13 27 6 7 8 13
6 8 8 8 8 6 10 10 13 9 11 13 16 12 11 4 11 24 30 22 22 12 9 9 11 20 20 10 15 23 44 5 36 14 -15 -2 35 30 -1 14 22 27 -0 5 14
4 6 9 8 6 7 8 9 11 11 9 12 13 17 12 6 12 19 31 22 20 14 9 8 10 16 20 16 11 19 45 14 9 43 10 -31 29 20 36 6 13 29 26 7 7
6 5 10 10 7 7 6 7 11 12 9 13 11 15 15 6 7 13 24 28 22 15 10 9 9 14 15 17 10 13 19 38 2 7 37 2 -23 5 36 32 33 21 21 11 16
4 5 6 6 7 7 7 9 11 11 13 11 12 12 15 10 7 12 22 22 26 18 10 9 9 9 21 16 17 3 17 29 35 9 8 53 -21 -40 17 20 -12 -3 35 25 4
3 8 11 9 7 7 5 6 9 10 14 10 15 12 13 12 6 11 21 24 28 23 16 10 9 9 9 20 16 18 9 13 33 37 -7 5 60 -3 -33 31 -6 35 21 6 24
3 5 11 8 6 9 7 4 8 9 11 12 13 14 13 12 6 7 17 24 22 25 20 15 9 8 11 7 23 18 9 11 11 31 30 -3 -6 87 -3 -36 30 14 3 12 33
Height
5800 5797 5794 5790 5786 5782 5777 5772 5767 5762 5756 5750 5744 5738 5732 5727 5721 5717 5712 5709 5708 5707 5709 5709 5709 5710 5711 5714 5716 5718 5717 5720 5731 5740 5750 5753 5758 5766 5769 5770 5776 5782 5787 5786 5795
5798 5794 5790 5786 5781 5776 5771 5765 5759 5753 5746 5739 5732 5725 5717 5710 5703 5698 5691 5687 5684 5684 5684 5687 5689 5690 5693 5698 5700 5701 5705 5713 5722 5729 5735 5742 5747 5755 5757 5764 5769 5774 5778 5785 5788
5795 5791 5786 5781 5776 5769 5762 5756 5748 5741 5733 5725 5717 5708 5698 5687 5678 5670 5659 5654 5651 5652 5655 5658 5660 5663 5671 5676 5684 5688 5694 5700 5705 5714 5721 5730 5737 5743 5747 5752 5760 5767 5774 5779 5782
5792 5787 5782 5776 5769 5761 5753 5746 5738 5729 5719 5709 5700 5690 5678 5664 5650 5637 5625 5619 5617 5619 5621 5626 5632 5635 5645 5653 5664 5665 5679 5683 5690 5700 5707 5718 5723 5731 5735 5744 5751 5759 5761 5768 5773
5788 5783 5777 5770 5762 5754 5745 5737 5728 5719 5709 5698 5688 5675 5660 5642 5622 5610 5602 5596 5594 5595 5595 5598 5606 5611 5617 5631 5638 5647 5662 5665 5672 5682 5694 5702 5709 5716 5721 5730 5742 5748 5751 5759 5766
5783 5778 5771 5763 5756 5747 5738 5728 5718 5707 5696 5684 5671 5653 5633 5615 5603 5595 5591 5584 5579 5578 5577 5577 5582 5587 5592 5604 5613 5632 5639 5645 5653 5666 5678 5688 5693 5699 5710 5721 5732 5737 5741 5752 5758
5778 5772 5765 5757 5749 5739 5729 5718 5707 5695 5682 5670 5651 5632 5612 5601 5592 5586 5579 5572 5566 5564 5562 5558 5563 5566 5579 5587 5598 5609 5614 5623 5635 5648 5662 5669 5675 5693 5703 5706 5716 5725 5732 5741 5749
5773 5766 5758 5750 5740 5730 5719 5707 5695 5682 5668 5651 5632 5614 5599 5590 5583 5574 5569 5560 5550 5548 5549 5544 5546 5552 5559 5570 5579 5589 5594 5603 5623 5630 5647 5652 5671 5681 5685 5692 5704 5713 5721 5729 5738
5768 5760 5751 5742 5732 5720 5708 5696 5683 5668 5653 5635 5617 5600 5589 5581 5574 5565 5557 5552 5544 5535 5533 5534 5534 5537 5542 5550 5559 5568 5575 5588 5601 5612 5627 5637 5661 5666 5667 5678 5691 5701 5710 5718 5728
5763 5755 5745 5734 5723 5710 5698 5685 5672 5656 5639 5622 5605 5588 5580 5573 5565 5556 5545 5537 5532 5526 5521 5522 5521 5522 5527 5533 5539 5554 5560 5573 5582 5598 5612 5627 5639 5650 5652 5665 5678 5688 5698 5707 5717
5758 5749 5739 5727 5715 5702 5689 5676 5662 5648 5629 5611 5595 5582 5571 5563 5555 5545 5536 5529 5519 5513 5509 5509 5510 5509 5510 5516 5523 5533 5543 5549 5567 5580 5597 5616 5624 5634 5640 5652 5664 5673 5685 5696 5706
5752 5743 5732 5721 5708 5694 5680 5665 5649 5632 5617 5602 5586 5573 5562 5552 5545 5537 5525 5516 5507 5501 5496 5495 5494 5495 5499 5503 5509 5519 5529 5539 5554 5567 5580 5600 5606 5619 5625 5637 5649 5659 5671 5683 5695
5747 5737 5725 5714 5701 5687 5672 5657 5641 5624 5610 5592 5579 5568 5556 5545 5533 5522 5511 5500 5494 5486 5483 5481 5478 5483 5486 5490 5494 5507 5518 5533 5544 5552 5566 5582 5589 5597 5607 5624 5638 5649 5660 5672 5681
5741 5730 5719 5708 5696 5680 5665 5649 5633 5617 5602 5587 5571 5560 5547 5536 5524 5509 5494 5484 5476 5473 5469 5467 5468 5469 5473 5476 5482 5496 5508 5519 5528 5537 5546 5561 5572 5583 5598 5611 5624 5635 5646 5661 5673
5736 5724 5714 5700 5687 5673 5658 5641 5626 5610 5595 5579 5562 5550 5537 5524 5511 5498 5484 5474 5464 5460 5460 5458 5457 5459 5462 5466 5471 5480 5487 5505 5519 5526 5535 5544 5560 5576 5584 5595 5611 5623 5634 5648 5658
5731 5720 5709 5696 5681 5667 5650 5635 5619 5605 5589 5575 5558 5545 5534 5522 5505 5488 5472 5465 5458 5453 5451 5451 5449 5451 5452 5455 5458 5465 5477 5492 5510 5518 5519 5531 5545 5566 5573 5585 5596 5611 5622 5635 5646
5727 5716 5704 5691 5677 5660 5645 5630 5616 5599 5586 5571 5556 5542 5528 5516 5499 5481 5468 5461 5456 5453 5447 5446 5443 5443 5443 5444 5447 5455 5468 5484 5495 5500 5509 5527 5537 5544 5548 5560 5585 5598 5611 5623 5635
5723 5712 5699 5686 5671 5656 5641 5627 5613 5598 5583 5568 5551 5538 5524 5508 5494 5476 5464 5458 5452 5448 5444 5441 5439 5437 5435 5436 5438 5445 5457 5469 5482 5492 5508 5520 5521 5529 5539 5555 5578 5587 5597 5609 5622
5719 5708 5696 5681 5667 5652 5638 5623 5608 5593 5579 5565 5551 5534 5522 5507 5489 5474 5462 5454 5450 5446 5443 5439 5435 5433 5430 5430 5433 5437 5445 5458 5475 5491 5499 5502 5510 5519 5528 5540 5558 5573 5586 5598 5610
5716 5705 5692 5678 5665 5651 5636 5623 5608 5593 5577 5560 5545 5531 5518 5503 5489 5474 5461 5454 5448 5444 5440 5436 5433 5429 5427 5427 5429 5432 5441 5452 5463 5477 5484 5489 5495 5505 5512 5527 5543 5559 5573 5586 5599
5713 5702 5689 5676 5662 5648 5635 5620 5606 5591 5575 5559 5544 5530 5517 5504 5489 5475 5463 5455 5447 5442 5439 5435 5431 5429 5426 5426 5426 5430 5436 5444 5454 5467 5475 5478 5486 5492 5505 5516 5528 5545 5560 5573 5585
5710 5699 5686 5674 5662 5647 5632 5616 5603 5588 5574 5559 5544 5529 5516 5503 5489 5475 5463 5453 5447 5442 5438 5434 5429 5426 5425 5425 5425 5426 5431 5438 5445 5455 5462 5467 5475 5486 5495 5505 5517 5532 5547 5561 5573
5708 5696 5684 5671 5658 5644 5630 5616 5601 5587 5573 5558 5543 5529 5515 5502 5489 5475 5463 5453 5446 5441 5437 5433 5429 5425 5424 5425 5424 5424 5427 5433 5439 5446 5453 5460 5469 5476 5485 5494 5504 5517 5533 5547 5560
5706 5694 5682 5669 5655 5642 5628 5614 5600 5585 5572 5557 5543 5530 5515 5503 5489 5477 5464 5454 5445 5440 5435 5432 5428 5424 5423 5421 5422 5423 5425 5428 5434 5439 5446 5452 5463 5471 5480 5488 5498 5508 5520 5534 5547
5703 5691 5679 5667 5654 5640 5627 5612 5598 5584 5570 5556 5541 5528 5517 5505 5492 5479 5465 5453 5445 5439 5435 5431 5428 5424 5421 5420 5420 5421 5423 5425 5428 5434 5439 5448 5455 5462 5468 5479 5490 5501 5511 5521 5534
5701 5689 5677 5665 5652 5640 5626 5612 5597 5583 5570 5556 5542 5529 5517 5504 5492 5479 5466 5454 5445 5438 5434 5430 5427 5424 5420 5418 5417 5418 5420 5422 5424 5428 5433 5440 5445 5453 5460 5469 5480 5490 5501 5511 5522
5699 5687 5675 5663 5651 5638 5625 5610 5596 5582 5570 5557 5543 5529 5516 5504 5492 5480 5466 5453 5444 5437 5432 5428 5425 5423 5420 5417 5415 5416 5417 5419 5421 5423 5427 5434 5440 5445 5453 5460 5469 5478 5489 5500 5510